USA 270

Last updated on Oct. 20, 2020, 5:51 a.m. UTC

1 41744U 16052A   20293.67402464  .00000128  00000-0  00000+0 0  9993
2 41744   0.8491  95.2234 0024903 132.7869  76.3407  1.00707153  7416
UTC
Height (km)
Latitude
Longitude
Inclination
Orbital Period
UTC large
Height (km)
Speed (km/s)
/
Latitude / Longitude
Inclination (degrees)
Orbital Period (minutes)
Azimuth
Elevation
Range (km)
Doppler Factor
iOS Compass Heading
iOS Angle

Next 30 passes for location: Hong Kong

Rise time Rise Azimuth (degrees) Set time Set Azimuth (degrees) Duration Max altitude (degrees)

No matching passes for this satellites